[[{"header":{"parameterUnit":"m.s-1","parameterCategory":2,"la1":30.2992,"la2":30.254,"lo1":-89.0895,"lo2":-89.0443,"dy":0.0025,"dx":0.0025,"nx":19,"ny":19,"refTime":"2026-04-04T21:00:00:Z","depth":"0","parameterNumber":2,"parameterNumberName":"U-component_of_CURRENTS"},"data":[0,0,0,-0.2648,-0.265,-0.2741,-0.2741,-0.2807,-0.2808,0,0,0,0,0,0,0,0,0,0,0,-0.2601,-0.2601,-0.2648,-0.265,-0.2741,-0.2741,-0.2807,-0.2808,0,0,0,0,0,0,0,0,0,0,0,-0.2601,-0.2601,-0.2602,-0.265,-0.2741,-0.2741,-0.2807,-0.275,0,0,0,0,0,0,0,0,0,0,-0.2667,-0.2625,-0.2601,-0.2602,-0.2651,-0.2741,-0.2741,-0.2747,-0.2753,-0.2753,0,-0.2762,0,-0.2795,-0.2811,-0.2812,0,0,0,-0.2645,-0.262,-0.2656,-0.2602,-0.2652,-0.2741,-0.2699,-0.2751,-0.2758,-0.276,-0.2763,-0.2767,-0.2796,-0.2812,-0.2812,-0.2887,-0.2887,0,0,-0.264,-0.2608,-0.2652,-0.266,-0.2668,-0.2696,-0.2701,-0.2756,-0.2751,-0.2764,-0.2769,-0.2797,-0.2812,-0.2812,-0.2887,-0.2887,0,0,0,-0.2629,-0.2604,-0.264,-0.2656,-0.2682,-0.2698,-0.2705,-0.2748,-0.2763,-0.277,-0.2797,-0.2812,-0.2813,-0.2886,-0.2887,-0.2916,0,0,0,-0.2626,-0.2599,-0.2637,-0.2617,-0.2681,-0.2722,-0.2696,-0.2759,-0.2767,-0.2797,-0.2812,-0.2814,-0.2886,-0.2886,-0.2915,-0.294,0,0,0,-0.2598,-0.2596,-0.2607,-0.2616,-0.2661,-0.2722,-0.274,-0.2762,-0.2784,-0.2812,-0.2814,-0.2885,-0.2886,-0.2913,-0.2937,-0.2955,0,0,0,-0.2562,-0.2586,-0.2605,-0.2649,-0.266,-0.2751,-0.274,-0.2797,-0.2824,-0.2813,-0.2886,-0.2887,-0.2912,-0.2935,-0.2953,-0.2931,-0.2938,0,0,-0.258,-0.2587,-0.262,-0.2641,-0.2727,-0.2738,-0.282,-0.2842,-0.2836,-0.2862,-0.2865,-0.2915,-0.2937,-0.2954,-0.2987,-0.2992,0,0,0,-0.2619,-0.2635,-0.2667,-0.2718,-0.2784,-0.284,-0.287,-0.2879,-0.2902,-0.2858,-0.2927,-0.294,-0.295,-0.2933,-0.2937,-0.2932,-0.2891,-0.2891,-0.2891,-0.2572,-0.2638,-0.2695,-0.2776,-0.2834,-0.291,-0.295,-0.2965,-0.2947,-0.2958,-0.2972,-0.3019,-0.3002,-0.3005,-0.3,-0.2974,-0.2974,-0.2975,-0.2975,-0.2591,-0.262,-0.271,-0.2786,-0.2864,-0.2926,-0.3014,-0.3015,-0.3052,-0.302,-0.3027,-0.2975,-0.3011,-0.3004,-0.2977,-0.2976,-0.2976,-0.2976,-0.2976,-0.2543,-0.2566,-0.2627,-0.2729,-0.2822,-0.292,-0.3006,-0.3055,-0.3076,-0.3101,-0.3061,-0.306,-0.3047,-0.3088,-0.3088,-0.3088,-0.3089,-0.3089,-0.3089,-0.2447,-0.2519,-0.2551,-0.2668,-0.2723,-0.2829,-0.2987,-0.3046,-0.31,-0.3106,-0.3106,-0.3068,-0.3054,-0.304,-0.3092,-0.3091,-0.3091,-0.3091,-0.3091,-0.2354,-0.2386,-0.243,-0.248,-0.262,-0.2673,-0.2879,-0.3016,-0.3094,-0.3107,-0.3108,-0.3107,-0.3096,-0.3092,-0.308,-0.3139,-0.3139,-0.3139,-0.3139,-0.2251,-0.2286,-0.2302,-0.2357,-0.2457,-0.2592,-0.2683,-0.2861,-0.3024,-0.3065,-0.3126,-0.3091,-0.309,-0.3076,-0.3073,-0.306,-0.3112,-0.3112,-0.3112,-0.2156,-0.2191,-0.2151,-0.2242,-0.2362,-0.2471,-0.2506,-0.2739,-0.3009,-0.3112,-0.3128,-0.3129,-0.3077,-0.3074,-0.305,-0.3045,-0.3022,0,0]},{"header":{"parameterUnit":"m.s-1","parameterCategory":2,"la1":30.2992,"la2":30.254,"lo1":-89.0895,"lo2":-89.0443,"dy":0.0025,"dx":0.0025,"nx":19,"ny":19,"refTime":"2026-04-04T21:00:00:Z","depth":"0","parameterNumber":3,"parameterNumberName":"V-component_of_CURRENTS"},"data":[0,0,0,-0.0405,-0.0403,-0.0303,-0.0302,-0.0147,-0.0146,0,0,0,0,0,0,0,0,0,0,0,-0.0442,-0.0442,-0.0405,-0.0403,-0.0303,-0.0302,-0.0147,-0.0146,0,0,0,0,0,0,0,0,0,0,0,-0.0442,-0.0442,-0.0442,-0.0402,-0.0303,-0.0302,-0.0148,-0.0226,0,0,0,0,0,0,0,0,0,0,-0.0325,-0.0375,-0.0442,-0.0442,-0.0402,-0.0303,-0.0302,-0.023,-0.0221,-0.019,0,-0.0186,0,-0.0167,-0.0136,-0.0136,0,0,0,-0.0387,-0.0383,-0.0352,-0.0441,-0.0401,-0.0303,-0.0343,-0.0225,-0.0215,-0.0178,-0.0184,-0.0178,-0.0164,-0.0135,-0.0135,-0.0046,-0.0046,0,0,-0.0393,-0.0421,-0.0359,-0.0347,-0.039,-0.0347,-0.034,-0.0219,-0.0216,-0.0183,-0.0174,-0.0162,-0.0134,-0.0133,-0.0046,-0.0046,0,0,0,-0.0419,-0.0425,-0.0398,-0.0353,-0.0339,-0.0344,-0.0337,-0.0222,-0.0212,-0.0173,-0.016,-0.0134,-0.0132,-0.0045,-0.0046,-0.0139,0,0,0,-0.0422,-0.0441,-0.0401,-0.0416,-0.0342,-0.0284,-0.0342,-0.0221,-0.0206,-0.0161,-0.0134,-0.013,-0.0045,-0.0046,-0.0136,-0.0197,0,0,0,-0.0444,-0.0443,-0.0436,-0.0418,-0.0381,-0.0286,-0.0269,-0.0217,-0.0199,-0.0136,-0.013,-0.0045,-0.0045,-0.0134,-0.0192,-0.0173,0,0,0,-0.0469,-0.0495,-0.0437,-0.0461,-0.0382,-0.0351,-0.0269,-0.0232,-0.0188,-0.0133,-0.0045,-0.0046,-0.0133,-0.0189,-0.0171,-0.0141,-0.0149,0,0,-0.0522,-0.0502,-0.0518,-0.0464,-0.0473,-0.0363,-0.0348,-0.0252,-0.0175,-0.008,-0.0078,-0.0137,-0.0192,-0.0173,-0.0154,-0.0162,0,0,0,-0.0549,-0.0564,-0.0555,-0.0544,-0.049,-0.0435,-0.0331,-0.0272,-0.0182,-0.0151,-0.0115,-0.0146,-0.0131,-0.0108,-0.0114,0.0178,-0.0047,-0.0047,-0.0047,-0.0651,-0.0627,-0.066,-0.0621,-0.0588,-0.0477,-0.0419,-0.0312,-0.0232,-0.0204,-0.0206,-0.0237,-0.0214,-0.0218,0.0083,-0.0175,-0.0175,-0.0175,-0.0175,-0.076,-0.0789,-0.0745,-0.0769,-0.0687,-0.0649,-0.0496,-0.0421,-0.0315,-0.0262,-0.0241,-0.0188,-0.023,0.0093,-0.0181,-0.018,-0.0179,-0.0179,-0.0178,-0.0844,-0.0858,-0.0861,-0.0885,-0.086,-0.0755,-0.071,-0.057,-0.0418,-0.0397,-0.0305,-0.0302,-0.0029,-0.0366,-0.0367,-0.0367,-0.0367,-0.0367,-0.0367,-0.0934,-0.0938,-0.0999,-0.1003,-0.102,-0.0989,-0.0828,-0.0736,-0.0539,-0.041,-0.0408,0.0004,-0.0294,-0.0299,-0.037,-0.037,-0.0369,-0.0369,-0.0369,-0.105,-0.104,-0.1149,-0.1187,-0.1224,-0.1246,-0.1073,-0.0834,-0.0679,-0.0574,-0.0025,-0.0379,-0.0337,-0.0329,-0.0333,-0.0409,-0.0409,-0.0409,-0.0409,-0.1122,-0.1128,-0.1281,-0.1372,-0.1426,-0.137,-0.1284,-0.0959,-0.0354,-0.0008,0.0125,0.0212,0.0201,0.0282,0.0276,0.0288,0.0371,0.0373,0.0374,-0.1199,-0.1243,-0.1369,-0.1454,-0.1522,-0.1506,-0.1417,-0.1006,-0.0049,0.0438,0.053,0.0497,0.0658,0.0616,0.0768,0.0735,0.0763,0,0]}],[{"header":{"parameterUnit":"m.s-1","parameterCategory":2,"la1":30.2992,"la2":30.254,"lo1":-89.0895,"lo2":-89.0443,"dy":0.0025,"dx":0.0025,"nx":19,"ny":19,"refTime":"2026-04-04T21:00:00:Z","depth":"2","parameterNumber":2,"parameterNumberName":"U-component_of_CURRENTS"},"data":[0,0,0,-0.2565,-0.2567,-0.2657,-0.2658,-0.2722,-0.2722,0,0,0,0,0,0,0,0,0,0,0,-0.2519,-0.2519,-0.2564,-0.2567,-0.2657,-0.2658,-0.2721,-0.2722,0,0,0,0,0,0,0,0,0,0,0,-0.2519,-0.2519,-0.252,-0.2567,-0.2657,-0.2658,-0.2721,-0.2665,0,0,0,0,0,0,0,0,0,0,-0.2583,-0.2543,-0.2519,-0.252,-0.2568,-0.2657,-0.2658,-0.2663,-0.2668,-0.2667,0,-0.2677,0,-0.2709,-0.2726,-0.2726,0,0,0,-0.2562,-0.2538,-0.2573,-0.252,-0.2569,-0.2657,-0.2615,-0.2666,-0.2673,-0.2675,-0.2678,-0.2682,-0.271,-0.2726,-0.2726,-0.2799,-0.2799,0,0,-0.2557,-0.2527,-0.2569,-0.2577,-0.2586,-0.2612,-0.2618,-0.2671,-0.2667,-0.2679,-0.2684,-0.2711,-0.2726,-0.2727,-0.2798,-0.2799,0,0,0,-0.2546,-0.2523,-0.2557,-0.2573,-0.2598,-0.2615,-0.2622,-0.2664,-0.2679,-0.2685,-0.2711,-0.2727,-0.2727,-0.2798,-0.2799,-0.283,0,0,0,-0.2543,-0.2517,-0.2555,-0.2536,-0.2598,-0.2639,-0.2614,-0.2674,-0.2682,-0.2711,-0.2727,-0.2728,-0.2798,-0.2798,-0.2828,-0.2853,0,0,0,-0.2516,-0.2515,-0.2525,-0.2535,-0.2579,-0.2639,-0.2656,-0.2677,-0.2699,-0.2726,-0.2728,-0.2797,-0.2798,-0.2826,-0.285,-0.2868,0,0,0,-0.2481,-0.2506,-0.2524,-0.2567,-0.2578,-0.2666,-0.2656,-0.2712,-0.2738,-0.2727,-0.2798,-0.2799,-0.2826,-0.2848,-0.2866,-0.2826,-0.2831,0,0,-0.2499,-0.2506,-0.2538,-0.2558,-0.264,-0.2653,-0.2732,-0.2755,-0.275,-0.2775,-0.2777,-0.2828,-0.285,-0.2867,-0.2881,-0.2885,0,0,0,-0.2537,-0.2552,-0.2582,-0.2632,-0.2695,-0.275,-0.2781,-0.2791,-0.2815,-0.2772,-0.2839,-0.2852,-0.2862,-0.2834,-0.2838,-0.2803,-0.2803,-0.2803,-0.2803,-0.2492,-0.2555,-0.2609,-0.2686,-0.2743,-0.2818,-0.2858,-0.2874,-0.2858,-0.287,-0.2885,-0.2932,-0.2904,-0.2905,-0.2887,-0.2887,-0.2887,-0.2888,-0.2888,-0.251,-0.2537,-0.2623,-0.2696,-0.2772,-0.2834,-0.292,-0.2924,-0.2962,-0.2932,-0.2939,-0.2878,-0.291,-0.289,-0.289,-0.2889,-0.2889,-0.2889,-0.2889,-0.2464,-0.2485,-0.2545,-0.2642,-0.2733,-0.2829,-0.2914,-0.2965,-0.2988,-0.3013,-0.2963,-0.2961,-0.2947,-0.3002,-0.3002,-0.3003,-0.3003,-0.3003,-0.3003,-0.2371,-0.2441,-0.2471,-0.2584,-0.2638,-0.2741,-0.2898,-0.2956,-0.3004,-0.3007,-0.3006,-0.2971,-0.2967,-0.2954,-0.3006,-0.3006,-0.3005,-0.3005,-0.3005,-0.228,-0.2312,-0.2353,-0.2401,-0.2535,-0.2569,-0.2783,-0.2911,-0.2991,-0.2998,-0.3,-0.2999,-0.2986,-0.2982,-0.297,-0.3023,-0.3023,-0.3023,-0.3023,-0.218,-0.2214,-0.2228,-0.2279,-0.2373,-0.2482,-0.2515,-0.2584,-0.2734,-0.2729,-0.2741,-0.268,-0.2688,-0.2653,-0.2657,-0.2636,-0.2602,-0.2601,-0.26,-0.2087,-0.2121,-0.208,-0.2166,-0.2278,-0.2344,-0.2263,-0.2173,-0.2295,-0.2573,-0.256,-0.3016,-0.2959,-0.2958,-0.293,-0.2927,-0.2903,0,0]},{"header":{"parameterUnit":"m.s-1","parameterCategory":2,"la1":30.2992,"la2":30.254,"lo1":-89.0895,"lo2":-89.0443,"dy":0.0025,"dx":0.0025,"nx":19,"ny":19,"refTime":"2026-04-04T21:00:00:Z","depth":"2","parameterNumber":3,"parameterNumberName":"V-component_of_CURRENTS"},"data":[0,0,0,-0.0333,-0.0331,-0.0234,-0.0233,-0.0081,-0.0079,0,0,0,0,0,0,0,0,0,0,0,-0.0369,-0.0369,-0.0333,-0.0331,-0.0234,-0.0233,-0.0081,-0.0079,0,0,0,0,0,0,0,0,0,0,0,-0.0369,-0.0369,-0.0369,-0.0331,-0.0234,-0.0233,-0.0081,-0.0158,0,0,0,0,0,0,0,0,0,0,-0.0254,-0.0303,-0.0369,-0.0369,-0.033,-0.0234,-0.0233,-0.0162,-0.0153,-0.0121,0,-0.0119,0,-0.01,-0.007,-0.007,0,0,0,-0.0315,-0.0311,-0.0281,-0.0369,-0.0329,-0.0234,-0.0273,-0.0157,-0.0147,-0.011,-0.0117,-0.0111,-0.0097,-0.0069,-0.0068,0.0019,0.0019,0,0,-0.0321,-0.0349,-0.0288,-0.0276,-0.0319,-0.0276,-0.027,-0.0151,-0.0149,-0.0116,-0.0107,-0.0095,-0.0068,-0.0067,0.002,0.0019,0,0,0,-0.0346,-0.0353,-0.0326,-0.0282,-0.0269,-0.0274,-0.0267,-0.0154,-0.0145,-0.0105,-0.0093,-0.0067,-0.0066,0.002,0.002,-0.0076,0,0,0,-0.0349,-0.0369,-0.0329,-0.0344,-0.0272,-0.0216,-0.0273,-0.0153,-0.0139,-0.0094,-0.0067,-0.0064,0.002,0.002,-0.0073,-0.0133,0,0,0,-0.0371,-0.0371,-0.0364,-0.0346,-0.031,-0.0217,-0.02,-0.0149,-0.0132,-0.0069,-0.0064,0.002,0.002,-0.007,-0.0128,-0.0109,0,0,0,-0.0396,-0.0421,-0.0365,-0.0389,-0.0312,-0.0282,-0.0201,-0.0165,-0.0121,-0.0067,0.002,0.002,-0.007,-0.0124,-0.0106,-0.0078,-0.0087,0,0,-0.0448,-0.0428,-0.0444,-0.0392,-0.0401,-0.0293,-0.0279,-0.0185,-0.0109,-0.0014,-0.0012,-0.0074,-0.0127,-0.0108,-0.0091,-0.0099,0,0,0,-0.0475,-0.049,-0.0482,-0.0471,-0.0418,-0.0365,-0.0263,-0.0204,-0.0117,-0.0085,-0.0051,-0.0082,-0.0067,-0.0044,-0.005,0.0019,0.0019,0.0019,0.0019,-0.0578,-0.0554,-0.0587,-0.0548,-0.0516,-0.0407,-0.0351,-0.0245,-0.0167,-0.014,-0.0143,-0.0174,-0.0152,-0.0156,-0.0111,-0.0112,-0.0112,-0.0112,-0.0112,-0.0686,-0.0715,-0.0671,-0.0696,-0.0616,-0.058,-0.0429,-0.0355,-0.0252,-0.0199,-0.0178,-0.0126,-0.0169,-0.012,-0.0118,-0.0117,-0.0116,-0.0116,-0.0116,-0.077,-0.0784,-0.0788,-0.0812,-0.0789,-0.0686,-0.0643,-0.0506,-0.0355,-0.0335,-0.0243,-0.0241,-0.0228,-0.0304,-0.0304,-0.0305,-0.0305,-0.0305,-0.0305,-0.086,-0.0865,-0.0925,-0.0931,-0.0948,-0.0919,-0.0762,-0.0671,-0.0477,-0.0348,-0.0346,-0.0238,-0.0231,-0.0236,-0.0308,-0.0308,-0.0307,-0.0307,-0.0307,-0.0976,-0.0967,-0.1075,-0.1113,-0.115,-0.1161,-0.1,-0.0767,-0.0616,-0.0512,-0.032,-0.0319,-0.0275,-0.0268,-0.0272,-0.0349,-0.0349,-0.0349,-0.0349,-0.1048,-0.1054,-0.1205,-0.1296,-0.1348,-0.128,-0.1179,-0.086,-0.0529,-0.034,-0.034,-0.0305,-0.0303,-0.0258,-0.0251,-0.0253,-0.0325,-0.0325,-0.0325,-0.1125,-0.1168,-0.1293,-0.1376,-0.1441,-0.1404,-0.1279,-0.0872,-0.0398,-0.0325,-0.0348,-0.0345,-0.0292,-0.029,-0.0215,-0.0206,-0.0206,0,0]}],[{"header":{"parameterUnit":"m.s-1","parameterCategory":2,"la1":30.2992,"la2":30.254,"lo1":-89.0895,"lo2":-89.0443,"dy":0.0025,"dx":0.0025,"nx":19,"ny":19,"refTime":"2026-04-04T21:00:00:Z","depth":"4","parameterNumber":2,"parameterNumberName":"U-component_of_CURRENTS"},"data":[0,0,0,-0.1739,-0.1742,-0.1903,-0.1904,-0.2022,-0.2022,0,0,0,0,0,0,0,0,0,0,0,-0.1685,-0.1686,-0.1738,-0.1742,-0.1903,-0.1904,-0.2021,-0.2022,0,0,0,0,0,0,0,0,0,0,0,-0.1685,-0.1686,-0.1687,-0.1743,-0.1903,-0.1904,-0.2021,-0.1922,0,0,0,0,0,0,0,0,0,0,-0.1777,-0.1742,-0.1686,-0.1687,-0.1744,-0.1903,-0.1904,-0.1919,-0.1928,-0.1923,0,-0.1955,0,-0.1988,-0.2028,-0.2028,0,0,0,-0.1745,-0.1734,-0.1774,-0.1688,-0.1745,-0.1903,-0.1831,-0.1925,-0.1936,-0.1935,-0.1957,-0.1962,-0.199,-0.2029,-0.2029,-0.2134,-0.2135,0,0,-0.1736,-0.1716,-0.1767,-0.1782,-0.1795,-0.1826,-0.1836,-0.1933,-0.1947,-0.1957,-0.1965,-0.1992,-0.2029,-0.203,-0.2134,-0.2134,0,0,0,-0.1709,-0.1709,-0.1749,-0.1776,-0.1811,-0.1831,-0.1842,-0.1943,-0.1956,-0.1967,-0.1993,-0.203,-0.2031,-0.2133,-0.2134,-0.2176,0,0,0,-0.1704,-0.1693,-0.1745,-0.1735,-0.181,-0.1892,-0.185,-0.1949,-0.1962,-0.1993,-0.203,-0.2031,-0.2132,-0.2133,-0.2174,-0.2196,0,0,0,-0.1676,-0.169,-0.1711,-0.1733,-0.1802,-0.1891,-0.1911,-0.1953,-0.1977,-0.2028,-0.2032,-0.2132,-0.2133,-0.2171,-0.2192,-0.2215,0,0,0,-0.1646,-0.168,-0.1711,-0.1764,-0.18,-0.1898,-0.1911,-0.1995,-0.2044,-0.203,-0.2132,-0.2134,-0.2171,-0.219,-0.2213,-0.1947,0,0,0,-0.1665,-0.1682,-0.1713,-0.1744,-0.1829,-0.1875,-0.1972,-0.2041,-0.2056,-0.2093,-0.2097,-0.2174,-0.2192,-0.2215,-0.2022,0,0,0,0,-0.1704,-0.1725,-0.1757,-0.182,-0.1892,-0.1975,-0.2044,-0.2075,-0.2145,-0.2091,-0.2188,-0.2198,-0.221,-0.205,-0.214,-0.214,-0.2139,-0.2139,-0.2139,-0.1679,-0.1733,-0.1791,-0.1868,-0.194,-0.2051,-0.2118,-0.2172,-0.2177,-0.2217,-0.2242,-0.2303,-0.2135,-0.2251,-0.2251,-0.2251,-0.2251,-0.2251,-0.2252,-0.1685,-0.1707,-0.1808,-0.1887,-0.1988,-0.2079,-0.2196,-0.223,-0.2309,-0.2294,-0.2304,-0.2117,-0.2256,-0.2255,-0.2254,-0.2254,-0.2254,-0.2253,-0.2253,-0.1635,-0.1652,-0.1735,-0.185,-0.1978,-0.2103,-0.2197,-0.2291,-0.2347,-0.2384,-0.2203,-0.2334,-0.2319,-0.2388,-0.2389,-0.2389,-0.2389,-0.2389,-0.2389,-0.153,-0.1613,-0.1667,-0.1809,-0.1888,-0.2015,-0.2203,-0.2252,-0.234,-0.2229,-0.24,-0.2349,-0.2344,-0.2327,-0.2393,-0.2392,-0.2392,-0.2391,-0.2391,-0.1426,-0.1483,-0.1538,-0.1615,-0.1777,-0.185,-0.2075,-0.2123,-0.2154,-0.2104,-0.2137,-0.2149,-0.2108,-0.2109,-0.2082,-0.2078,-0.2074,-0.2071,0,-0.1332,-0.137,-0.1416,-0.1483,-0.1556,-0.1736,-0.1744,-0.1847,-0.1924,-0.1855,-0.2131,-0.2165,-0.2172,-0.2124,-0.212,-0.2085,0,0,0,-0.1248,-0.1279,-0.1263,-0.136,-0.1438,-0.1545,-0.1729,-0.17,-0.192,-0.1883,-0.1991,-0.2012,-0.225,-0.2403,-0.2368,-0.2362,-0.2333,0,0]},{"header":{"parameterUnit":"m.s-1","parameterCategory":2,"la1":30.2992,"la2":30.254,"lo1":-89.0895,"lo2":-89.0443,"dy":0.0025,"dx":0.0025,"nx":19,"ny":19,"refTime":"2026-04-04T21:00:00:Z","depth":"4","parameterNumber":3,"parameterNumberName":"V-component_of_CURRENTS"},"data":[0,0,0,-0.0101,-0.0101,-0.0045,-0.0045,0.006,0.0061,0,0,0,0,0,0,0,0,0,0,0,-0.0123,-0.0123,-0.0102,-0.0101,-0.0045,-0.0045,0.006,0.0061,0,0,0,0,0,0,0,0,0,0,0,-0.0123,-0.0123,-0.0123,-0.01,-0.0045,-0.0044,0.006,0.0012,0,0,0,0,0,0,0,0,0,0,-0.0045,-0.0078,-0.0123,-0.0123,-0.01,-0.0045,-0.0044,0.001,0.0015,0.004,0,0.0038,0,0.0048,0.0067,0.0068,0,0,0,-0.0088,-0.0083,-0.0066,-0.0123,-0.01,-0.0045,-0.0066,0.0013,0.0019,0.0048,0.0039,0.0043,0.005,0.0068,0.0069,0.0127,0.0127,0,0,-0.0091,-0.011,-0.007,-0.0063,-0.0099,-0.0068,-0.0065,0.0016,0.0016,0.004,0.0045,0.0052,0.0069,0.0069,0.0127,0.0127,0,0,0,-0.0108,-0.0113,-0.0098,-0.0067,-0.0061,-0.0067,-0.0063,0.0013,0.0018,0.0047,0.0053,0.0069,0.007,0.0127,0.0127,0.0034,0,0,0,-0.011,-0.0123,-0.0099,-0.011,-0.0063,-0.0029,-0.0068,0.0012,0.0022,0.0052,0.0069,0.0071,0.0127,0.0127,0.0036,-0.0016,0,0,0,-0.0124,-0.0125,-0.0122,-0.0111,-0.0092,-0.003,-0.002,0.0015,0.0025,0.0068,0.0072,0.0127,0.0127,0.0039,-0.0011,0.0004,0,0,0,-0.0138,-0.0161,-0.0123,-0.0149,-0.0093,-0.0085,-0.0021,-0.0003,0.0025,0.007,0.0127,0.0127,0.004,-0.0008,0.0006,-0.0032,0,0,0,-0.0179,-0.0166,-0.0183,-0.0148,-0.0171,-0.0091,-0.0098,-0.003,0.0035,0.0106,0.0107,0.0035,-0.0011,0.0004,-0.0045,0,0,0,0,-0.0204,-0.0221,-0.022,-0.0224,-0.0194,-0.0169,-0.0096,-0.0051,0.0013,0.005,0.0057,0.0031,0.0044,0.0029,0.0126,0.0126,0.0126,0.0126,0.0126,-0.0279,-0.0272,-0.031,-0.0297,-0.0284,-0.0217,-0.0184,-0.0104,-0.0037,-0.0017,-0.0029,-0.0062,-0.0081,-0.0002,-0.0002,-0.0003,-0.0003,-0.0003,-0.0003,-0.0364,-0.0391,-0.0383,-0.042,-0.038,-0.037,-0.0267,-0.0209,-0.0134,-0.0083,-0.0065,-0.005,-0.0012,-0.001,-0.0009,-0.0008,-0.0007,-0.0007,-0.0006,-0.0419,-0.0433,-0.0458,-0.0509,-0.0522,-0.0466,-0.045,-0.0352,-0.0226,-0.0217,-0.0173,-0.0106,-0.0114,-0.0188,-0.0189,-0.0189,-0.0189,-0.0189,-0.0189,-0.0462,-0.0488,-0.0555,-0.0599,-0.0636,-0.0642,-0.0551,-0.0485,-0.0352,-0.0282,-0.0231,-0.0123,-0.0117,-0.0122,-0.0192,-0.0191,-0.0191,-0.0191,-0.0191,-0.0523,-0.0533,-0.0639,-0.0696,-0.0779,-0.0773,-0.0703,-0.0546,-0.047,-0.0378,-0.0288,-0.0282,-0.0241,-0.0232,-0.0239,-0.0346,-0.0347,-0.0348,0,-0.0554,-0.0571,-0.0712,-0.0813,-0.0877,-0.0848,-0.0765,-0.066,-0.0483,-0.0483,-0.0455,-0.036,-0.0352,-0.0313,-0.0305,-0.0318,0,0,0,-0.0592,-0.0634,-0.0738,-0.0844,-0.0918,-0.0816,-0.0738,-0.0676,-0.0528,-0.0445,-0.0367,-0.0362,-0.0305,-0.02,-0.0123,-0.0116,-0.0118,0,0]}]]